Date String (YYYY-MM-DD hh:mm:ss) UTC,Instrument flags,Ambient pressure (hPa),Sample flow (lpm),Bypass flow (lpm),Sample temperature (°C),Ambient temperature (°C),ASC tube jacket temperature (°C),LED temperature (°C),Box temperature (°C),Sample RH (%),Span deviation,Mass concentration (μg/m³),Mass concentration (μg/m³),Mass concentration (μg/m³)
DateTimeUTC,F1_M11,P_M11,Q1_M11,Q2_M11,T1_M11,T2_M11,T3_M11,T4_M11,T5_M11,U1_M11,ZSPAN_M11,X2_M11,X0_M11,X1_M11
2022-03-08 11:00:00,,0823.6,4.99,0.00,22.3,21.4,00.0,31.3,23.9,07.4,0000.0,0005.99,0008.93,0005.65
2022-03-08 11:01:00,,0823.7,5.01,0.00,22.2,21.3,00.0,31.3,23.9,07.4,0000.3,0005.87,0008.85,0005.55
2022-03-08 11:02:00,,0823.6,5.00,0.00,22.2,21.1,00.0,31.3,23.8,07.4,0000.5,0005.81,0008.88,0005.48
2022-03-08 11:03:00,,0823.6,4.99,0.00,22.1,21.0,00.0,31.3,23.7,07.5,0000.5,0005.75,0008.72,0005.44
2022-03-08 11:04:00,,0823.6,5.00,0.00,22.0,20.9,00.0,31.2,23.6,07.4,0000.9,0005.68,0008.53,0005.39
2022-03-08 11:05:00,,0823.6,5.02,0.00,22.0,21.4,00.0,31.2,23.7,07.4,0001.5,0005.62,0008.54,0005.33
2022-03-08 11:06:00,,0823.6,4.99,0.00,22.2,22.3,00.0,31.3,24.0,07.2,0001.5,0005.55,0008.50,0005.27
2022-03-08 11:07:00,,0823.6,5.00,0.00,22.3,22.9,00.0,31.3,24.2,07.1,0001.4,0005.47,0008.76,0005.20
2022-03-08 11:08:00,,0823.6,4.99,0.00,22.4,22.7,00.0,31.3,24.3,07.0,0001.0,0005.41,0008.74,0005.14
2022-03-08 11:09:00,,0823.7,5.01,0.00,22.4,22.3,00.0,31.3,24.2,07.1,0001.1,0005.38,0008.81,0005.11
2022-03-08 11:10:00,,0823.6,5.00,0.00,22.4,22.1,00.0,31.3,24.2,07.1,0001.1,0005.33,0008.73,0005.05
2022-03-08 11:11:00,,0823.6,5.00,0.00,22.3,22.0,00.0,31.3,24.1,07.2,0001.3,0005.27,0008.62,0005.01
2022-03-08 11:12:00,,0823.6,5.00,0.00,22.3,21.8,00.0,31.3,24.0,07.1,0001.1,0005.26,0008.54,0004.99
2022-03-08 11:13:00,,0823.6,5.00,0.00,22.3,21.7,00.0,31.3,24.0,07.0,0000.9,0005.24,0008.38,0004.97
2022-03-08 11:14:00,,0823.6,4.99,0.00,22.3,21.7,00.0,31.3,24.0,07.0,0000.7,0005.22,0008.46,0004.95
2022-03-08 11:15:00,,0823.6,5.00,0.00,22.2,21.6,00.0,31.3,24.0,07.0,0000.5,0005.20,0008.51,0004.92
2022-03-08 11:16:00,,0823.6,5.00,0.00,22.2,21.5,00.0,31.3,24.0,06.9,0000.5,0005.19,0008.51,0004.89
2022-03-08 11:17:00,,0823.6,5.01,0.00,22.2,21.5,00.0,31.2,23.9,06.9,0000.1,0005.21,0008.49,0004.90
2022-03-08 11:18:00,,0823.6,5.00,0.00,22.2,21.5,00.0,31.2,23.9,07.0,0000.3,0005.22,0008.14,0004.92
2022-03-08 11:19:00,,0823.6,5.00,0.00,22.2,21.4,00.0,31.2,23.9,07.0,0000.5,0005.22,0008.00,0004.95
2022-03-08 11:20:00,,0823.6,5.00,0.00,22.2,21.4,00.0,31.2,23.9,07.1,0000.2,0005.24,0007.96,0004.97
2022-03-08 11:21:00,,0823.6,5.01,0.00,22.1,21.4,00.0,31.2,23.9,07.1,0000.2,0005.28,0008.06,0005.00
2022-03-08 11:22:00,,0823.6,4.99,0.00,22.2,21.7,00.0,31.2,23.9,07.2,0000.1,0005.30,0008.04,0005.04
2022-03-08 11:23:00,,0823.7,4.99,0.00,22.3,22.4,00.0,31.2,24.1,07.2,-000.1,0005.37,0008.13,0005.07
2022-03-08 11:24:00,,0823.7,5.00,0.00,22.4,23.0,00.0,31.3,24.4,07.2,0000.0,0005.40,0008.13,0005.11
2022-03-08 11:25:00,,0823.6,5.00,0.00,22.5,23.0,00.0,31.3,24.5,07.1,0000.4,0005.40,0008.02,0005.13
2022-03-08 11:26:00,,0823.6,4.99,0.00,22.5,22.7,00.0,31.3,24.4,07.1,0000.5,0005.44,0008.01,0005.15
2022-03-08 11:27:00,,0823.6,5.00,0.00,22.5,22.5,00.0,31.3,24.3,07.0,0000.5,0005.46,0007.95,0005.19
2022-03-08 11:28:00,,0823.6,5.00,0.00,22.5,22.3,00.0,31.3,24.3,07.0,0000.7,0005.46,0007.91,0005.21
2022-03-08 11:29:00,,0823.7,5.00,0.00,22.5,22.1,00.0,31.3,24.2,07.2,0001.0,0005.56,0008.08,0005.28
2022-03-08 11:30:00,,0823.7,5.01,0.00,22.4,22.0,00.0,31.3,24.2,07.3,0001.6,0005.69,0008.33,0005.38
2022-03-08 11:31:00,,0823.7,5.00,0.00,22.4,21.9,00.0,31.3,24.1,07.3,0001.8,0005.76,0008.41,0005.43
2022-03-08 11:32:00,,0823.7,5.00,0.00,22.4,21.7,00.0,31.3,24.1,07.4,0001.8,0005.81,0008.40,0005.48
2022-03-08 11:33:00,,0823.7,5.00,0.00,22.3,21.7,00.0,31.3,24.0,07.3,0001.6,0005.84,0008.47,0005.50
2022-03-08 11:34:00,,0823.7,5.00,0.00,22.3,21.6,00.0,31.3,24.0,07.4,0001.6,0005.88,0008.50,0005.56
2022-03-08 11:35:00,,0823.6,5.01,0.00,22.3,21.5,00.0,31.3,24.0,07.5,0001.6,0005.98,0008.63,0005.65
2022-03-08 11:36:00,,0823.6,4.99,0.00,22.2,21.5,00.0,31.3,23.9,07.5,0001.3,0006.09,0008.89,0005.74
2022-03-08 11:37:00,,0823.6,4.99,0.00,22.2,21.4,00.0,31.3,23.9,07.5,0001.7,0006.14,0009.39,0005.80
2022-03-08 11:38:00,,0823.6,5.00,0.00,22.2,21.8,00.0,31.3,24.0,07.4,0002.1,0006.22,0009.50,0005.86
2022-03-08 11:39:00,,0823.6,4.99,0.00,22.3,22.5,00.0,31.3,24.2,07.4,0001.9,0006.29,0009.59,0005.93
2022-03-08 11:40:00,,0823.6,4.99,0.00,22.5,23.1,00.0,31.4,24.4,07.2,0001.9,0006.27,0009.55,0005.92
2022-03-08 11:41:00,,0823.6,5.01,0.00,22.6,23.0,00.0,31.4,24.5,07.2,0001.8,0006.24,0009.45,0005.91
2022-03-08 11:42:00,,0823.6,5.00,0.00,22.6,22.8,00.0,31.4,24.4,07.1,0001.8,0006.25,0009.79,0005.94
2022-03-08 11:43:00,,0823.6,4.98,0.00,22.6,22.5,00.0,31.4,24.4,07.2,0001.4,0006.28,0009.79,0005.99
2022-03-08 11:44:00,,0823.6,5.00,0.00,22.5,22.3,00.0,31.4,24.3,07.3,0001.7,0006.35,0009.85,0006.07
2022-03-08 11:45:00,,0823.7,5.00,0.00,22.5,22.1,00.0,31.4,24.2,07.3,0001.6,0006.41,0010.02,0006.13
2022-03-08 11:46:00,,0823.6,5.00,0.00,22.5,22.0,00.0,31.4,24.2,07.2,0001.3,0006.39,0010.27,0006.12
2022-03-08 11:47:00,,0823.7,5.00,0.00,22.4,21.9,00.0,31.4,24.1,07.1,0001.2,0006.36,0010.09,0006.09
2022-03-08 11:48:00,,0823.7,5.00,0.00,22.4,21.8,00.0,31.4,24.1,07.1,0001.2,0006.39,0009.68,0006.11
2022-03-08 11:49:00,,0823.7,5.00,0.00,22.3,21.7,00.0,31.4,24.0,07.2,0000.5,0006.46,0009.80,0006.16
2022-03-08 11:50:00,,0823.6,5.00,0.00,22.3,21.6,00.0,31.4,24.0,07.1,0000.7,0006.50,0009.85,0006.18
2022-03-08 11:51:00,,0823.6,5.00,0.00,22.3,21.5,00.0,31.4,23.9,07.2,0000.7,0006.54,0009.87,0006.22
2022-03-08 11:52:00,,0823.7,5.01,0.00,22.2,21.5,00.0,31.3,23.9,07.2,0000.3,0006.58,0010.03,0006.25
2022-03-08 11:53:00,,0823.7,4.99,0.00,22.3,21.8,00.0,31.3,24.0,07.3,0000.4,0006.60,0010.09,0006.27
2022-03-08 11:54:00,,0823.6,4.99,0.00,22.4,22.5,00.0,31.4,24.2,07.3,0000.5,0006.66,0010.11,0006.31
2022-03-08 11:55:00,,0823.6,5.00,0.00,22.5,23.1,00.0,31.4,24.5,07.2,0000.4,0006.67,0010.12,0006.31
2022-03-08 11:56:00,,0823.7,4.99,0.00,22.6,23.0,00.0,31.4,24.5,07.2,0000.8,0006.66,0010.02,0006.30
2022-03-08 11:57:00,,0823.7,5.01,0.00,22.6,22.8,00.0,31.4,24.5,07.2,0000.8,0006.68,0009.71,0006.32
2022-03-08 11:58:00,,0823.6,5.01,0.00,22.6,22.6,00.0,31.5,24.4,07.3,0000.8,0006.79,0009.93,0006.40
2022-03-08 11:59:00,,0823.6,5.00,0.00,22.6,22.4,00.0,31.5,24.3,07.2,0000.5,0006.87,0010.10,0006.47
